Weather History for PHJR - January, 2012

Change the Weather History Date:

Tuesday, January 3, 2012

  Actual Average (PHNL) Record (PHNL)
Temperature  
Mean Temperature 72 °F 74 °F  
Max Temperature 80 °F 80 °F 87 °F (1987)
Min Temperature 64 °F 67 °F 57 °F (1979)
Degree Days  
Heating Degree Days 0 0  
Month to date heating degree days 0  
Since 1 July heating degree days 0  
Cooling Degree Days 7 8  
Month to date cooling degree days 26  
Year to date cooling degree days 26  
Growing Degree Days 22 (Base 50)    
Moisture  
Dew Point 65 °F    
Average Humidity 76    
Maximum Humidity 93    
Minimum Humidity 62    
Precipitation  
Precipitation 0.00 in 0.08 in 3.91 in (1969)
Month to date precipitation 0.28  
Year to date precipitation 0.28  
Snow  
Snow 0.00 in - - ()
Month to date snowfall  
Since 1 July snowfall  
Snow Depth -    
Sea Level Pressure  
Sea Level Pressure 30.16 in    
Wind  
Wind Speed 4 mph (South)    
Max Wind Speed 9 mph    
Max Gust Speed -    
Visibility 7 miles    
Events      
T = Trace of Precipitation, MM = Missing Value Source: NWS Daily Summary

Daily Weather History Graph

Daily Weather History Graph

Search for Another Location

Airport or City:

Trip Planner

Search our weather history database for the weather conditions in past years. The results will help you decide how hot, cold, wet, or windy it might be!

Date:

Astronomy

Jan. 03, 2012 Rise Set
Actual Time 7:10 AM HST 6:03 PM HST
Civil Twilight 6:46 AM HST 6:27 PM HST
Nautical Twilight 6:18 AM HST 6:54 PM HST
Astronomical Twilight 5:51 AM HST 7:22 PM HST
Moon 1:48 PM HST (1/3) 2:23 AM HST (1/3)
Length of Visible Light 11h 40m
Length of Day
10h 52m
Waxing Gibbous, 74% of the Moon is Illuminated
Jan 3
Waxing Gibbous
Jan 8
Full
Jan 15
Last Quarter
Jan 22
New
Jan 30
First Quarter

Hourly Weather History & Observations

Time (HST) Temp. Heat Index Dew Point Humidity Pressure Visibility Wind Dir Wind Speed Gust Speed Precip Events Conditions
12:53 AM 66.9 °F - 64.0 °F 90% 30.14 in 7.0 mi NNW 4.6 mph - N/A   Scattered Clouds
1:53 AM 66.0 °F - 63.0 °F 90% 30.13 in 6.0 mi North 3.5 mph - N/A   Clear
2:53 AM 66.0 °F - 63.0 °F 90% 30.12 in 6.0 mi ENE 3.5 mph - N/A   Clear
3:53 AM 64.9 °F - 63.0 °F 93% 30.12 in 5.0 mi NNE 3.5 mph - N/A   Clear
4:53 AM 66.0 °F - 63.0 °F 90% 30.11 in 6.0 mi Calm Calm - N/A   Clear
5:53 AM 64.9 °F - 62.1 °F 90% 30.12 in 6.0 mi Calm Calm - N/A   Clear
6:53 AM 66.9 °F - 64.0 °F 90% 30.14 in 6.0 mi Variable 3.5 mph - N/A   Partly Cloudy
7:53 AM 70.0 °F - 64.9 °F 84% 30.17 in 5.0 mi Calm Calm - N/A   Haze
8:53 AM 75.0 °F - 66.0 °F 73% 30.19 in 6.0 mi Variable 4.6 mph - N/A   Haze
9:32 AM 78.8 °F - 66.2 °F 65% 30.18 in 7.0 mi Variable 4.6 mph - N/A   Partly Cloudy
9:53 AM 79.0 °F - 66.0 °F 64% 30.20 in 9.0 mi Variable 3.5 mph - N/A   Clear
10:53 AM 78.1 °F - 66.0 °F 66% 30.19 in 9.0 mi SSE 8.1 mph - N/A   Partly Cloudy
11:53 AM 79.0 °F - 64.9 °F 62% 30.17 in 8.0 mi South 8.1 mph - N/A   Clear
12:53 PM 80.1 °F 82.1 °F 66.0 °F 62% 30.14 in 7.0 mi South 9.2 mph - N/A   Clear
1:53 PM 79.0 °F - 66.0 °F 64% 30.12 in 7.0 mi South 9.2 mph - N/A   Clear
2:53 PM 79.0 °F - 68.0 °F 69% 30.12 in 7.0 mi South 6.9 mph - N/A   Clear
3:53 PM 78.1 °F - 66.9 °F 68% 30.13 in 7.0 mi SSW 5.8 mph - N/A   Clear
4:53 PM 77.0 °F - 66.0 °F 69% 30.15 in 6.0 mi SSW 5.8 mph - N/A   Haze
5:53 PM 75.9 °F - 66.9 °F 74% 30.17 in 6.0 mi SSW 3.5 mph - N/A   Haze
6:53 PM 75.9 °F - 66.9 °F 74% 30.19 in 8.0 mi Calm Calm - N/A   Overcast
7:53 PM 75.0 °F - 66.0 °F 73% 30.21 in 8.0 mi Variable 3.5 mph - N/A   Mostly Cloudy
8:53 PM 73.9 °F - 64.0 °F 71% 30.22 in 9.0 mi Calm Calm - N/A   Mostly Cloudy
9:53 PM 73.0 °F - 64.0 °F 73% 30.22 in 9.0 mi Variable 3.5 mph - N/A   Partly Cloudy
10:53 PM 72.0 °F - 63.0 °F 73% 30.21 in 9.0 mi Calm Calm - N/A   Clear
11:53 PM 73.0 °F - 63.0 °F 71% 30.21 in 8.0 mi Calm Calm - N/A   Clear